THORAD AGENA D DEB, 42494

Orbit data source: Space-Track

THORAD AGENA D DEB, 42494 is space debris in SSO originally from a launch on Wed, 08 Apr 1970 UTC launched from the Air Force Western Test Range (AFWTR). Debris objects in space refer to the collection of defunct objects orbiting the Earth. Examples of debris include non-operational satellites, rocket bodies, and fragments generated from explosions, collisions, or faulty payload assembly.

Loading next visibility...
Identifier
42494, 1970-025QY
Orbit
SSO
Country
Flag of USUS
Related business
Manufacturer
Unknown
Mission
Spacecraft
Bus & Motor
Unknown
Mass
Unknown
Launch date (UTC)
1970-04-08 (56 years ago)
Launch vehicle
Unknown
Launch site
Air Force Western Test Range (AFWTR)
Object type
Payload
Rocket body
Debris
Shape & HBR
Unknown shape, 0.1 m
Radar Cross Section
Small (<0.1 m²)

Expand to show TLE details & history
Last TLE update: 2 days ago

TLE from 2 days ago
0 THORAD AGENA D DEB
1 42494U 70025QY  25290.96880144  .00000491  00000-0  69360-3 0  9996
2 42494  99.7170   8.5479 0098652  58.8044 302.2721 13.60052981578529
Epoch: 2025-10-17T23:15Z
TLE epoch observation values (Epoch: 2025-10-17T23:15:04.444Z)
Latitude
-0°
Longitude
-6.92717°
Altitude
999.76 km
Speed
7.371 km/s
True Right ascension
00h 34m 11s
True Declination
0° 00' 00"
Sunlit
Object was in full shadow at epoch
Visualization orbit readout
Latitude
Unknown
Longitude
Unknown
Altitude
Unknown
Speed
Unknown
Apparent Right ascension
Unknown
Apparent Declination
Unknown
Sunlit
N/A
Visualization observer readout
Local Sidereal Time
16:54:27
Azimuth
Unknown
Elevation
Unknown
Doppler factor
Unknown
Orbital elements
Apogee altitude
1,105.898 km
Perigee altitude
959.678 km
Semi-major axis
7,410.925 km
Eccentricity
0.00987
Inclination
99.717°
RAAN
8.5479°
Arg. of periapsis
58.8044°
True anomaly
301.30998°
Mean anomaly
302.2721°
Eccentric anomaly
301.79167°
Mean motion
3.402 °/min
Orbital period
105.82 mins
BSTAR
0.0006936
Loading maneuver chart data...
Computing Atmospheric mass density...

Documentation

Showing up to 5 results
|